Flag for Germany Weather past 2 weeks in Bonn, North Rhine-Westphalia, Germany

Now
44 °F

Light freezing rain. Low clouds.


Feels Like: 39 °F
Forecast: 31 / 44 °F
Wind: 7 mph from Southwest

Location: Bonn-Hangelar

Current Time: Feb 27, 2015 at 1:57:17 AM

Latest Report: Feb 27, 2015 at 1:00 AM


Visibility: 5 mi

Pressure: 29.78 "Hg

Humidity: 95%

Dew point: 42 °F

Location of BonnLocation

Historic Weather in Bonn — Graph

°F

Bonn temperature yesterday

Maximum temperature yesterday: 46 °F (at 2:00 PM)
Minimum temperature yesterday: 37 °F (at 3:00 AM)
Average temperature yesterday: 42 °F

Past Weeks' High & Low Weather Summary

 TemperatureHumidityPressure
High50 °F (Feb 13, 1:00 PM)100% (Feb 17, 4:00 AM)30.78 "Hg (Feb 17, 4:00 AM)
Low29 °F (Feb 17, 2:00 AM)55% (Feb 12, 4:00 PM)29.38 "Hg (Feb 21, 3:00 AM)
Average38 °F86%29.99 "Hg
* Reported Feb 12 1:00 AM — Feb 27 1:00 AM, Bonn, Weather by CustomWeather, © 2015

Note: Actual official high and low records may vary slightly from our data, if they occured in-between our weather recording intervals... More about our weather records

Advertising

Bonn weather history for previous 24 hours

 ConditionsComfort  
Time TempWeatherWind HumidityBarometerVisibility
1:00 AM
Fri, Feb 27
44 °FLight freezing rain. Low clouds.7 mph95%29.78 "Hg5 mi
12:00 AMN/APassing clouds.101 mphN/AN/A2 mi
11:00 PM
Thu, Feb 26
44 °FLight rain. Low clouds.9 mph92%29.80 "Hg6 mi
10:00 PM43 °FDrizzle. Low clouds.9 mph92%29.81 "Hg3 mi
9:00 PM44 °FOvercast.9 mph89%29.83 "Hg9 mi
8:00 PM44 °FOvercast.8 mph92%29.86 "Hg9 mi
7:00 PM44 °FRain. Overcast.8 mph90%29.88 "Hg7 mi
6:00 PM44 °FRain. Low clouds.8 mph87%29.89 "Hg12 mi
5:00 PM45 °FOvercast.9 mph86%29.91 "Hg12 mi
4:00 PM46 °FLight rain. Overcast.9 mph82%29.93 "Hg16 mi
3:00 PM46 °FOvercast.7 mph79%29.97 "Hg19 mi
2:00 PM46 °FOvercast.7 mph82%29.98 "Hg19 mi
1:00 PM45 °FOvercast.9 mph80%30.02 "Hg19 mi
12:00 PM45 °FPartly sunny.7 mph84%30.05 "Hg17 mi
11:00 AM44 °FOvercast.6 mph85%30.05 "Hg19 mi
10:00 AM43 °FPartly sunny.6 mph88%30.07 "Hg16 mi
9:00 AM40 °FPartly sunny.9 mph93%30.09 "Hg16 mi
7:00 AM38 °FPassing clouds.5 mph95%30.11 "Hg9 mi
6:00 AM38 °FOvercast.3 mph97%30.12 "Hg6 mi
4:00 AM39 °FLow clouds.5 mph97%30.12 "Hg5 mi
3:00 AM37 °FFog.3 mph98%30.12 "Hg3 mi
2:00 AM39 °FFog.2 mph98%30.13 "Hg2 mi
1:00 AM39 °FFog.3 mph98%30.13 "Hg2 mi
Weather by CustomWeather, © 2015

See weather overviewHow to use our weather pages